Hibbing, MN

3:07 AM CDT on July 21, 2017 (GMT -0500)
Chisholm-hibbing

Weather History for KHIB - June, 2013

Change the Weather History Date:

Thursday, June 13, 2013

  Actual Average Record
Temperature  
Mean Temperature 65 °F -  
Max Temperature 78 °F 73 °F 93 °F (1987)
Min Temperature 50 °F 48 °F 30 °F (1969)
Growing Degree Days 15 (Base 50)    
Moisture  
Dew Point 47 °F    
Average Humidity 57    
Maximum Humidity 80    
Minimum Humidity 31    
Precipitation  
Precipitation 0.00 in - - ()
Sea Level Pressure  
Sea Level Pressure 30.10 in    
Wind  
Wind Speed 6 mph (NNE)    
Max Wind Speed 13 mph    
Max Gust Speed 18 mph    
Visibility 10 miles    
Events      
Averages and records for this station are not official NWS values.
T = Trace of Precipitation, MM = Missing Value Source: NWS Daily Summary

Daily Weather History Graph

Daily Weather History Graph

Search for Another Location

Airport or City:

Trip Planner

Search our weather history database for the weather conditions in past years. The results will help you decide how hot, cold, wet, or windy it might be!

Date:

Astronomy

Jun. 13, 2013 Rise Set
Actual Time 5:14 AM CDT 9:09 PM CDT
Civil Twilight 4:33 AM CDT 9:49 PM CDT
Nautical Twilight 3:38 AM CDT 10:44 PM CDT
Astronomical Twilight 2:13 AM CDT 12:10 AM CDT
Moon 10:07 AM CDT (6/13) 11:57 PM CDT (6/13)
Length of Visible Light 17h 15m
Length of Day
15h 55m
Waxing Crescent, 22% of the Moon is Illuminated
Jun 13
Waxing Crescent
Jun 16
First Quarter
Jun 23
Full
Jun 29
Last Quarter
Jul 8
New

Hourly Weather History & Observations

Time (CDT) Temp. Dew Point Humidity Pressure Visibility Wind Dir Wind Speed Gust Speed Precip Events Conditions
12:53 AM 57.0 °F 46.9 °F 69% 30.00 in 10.0 mi North 4.6 mph - N/A   Clear
1:53 AM 53.1 °F 46.0 °F 77% 30.02 in 10.0 mi NNW 5.8 mph - N/A   Clear
2:53 AM 55.9 °F 48.0 °F 75% 30.03 in 10.0 mi North 3.5 mph - N/A   Clear
3:53 AM 55.0 °F 48.0 °F 77% 30.05 in 10.0 mi North 6.9 mph - N/A   Clear
4:53 AM 53.1 °F 46.9 °F 80% 30.08 in 10.0 mi North 5.8 mph - N/A   Clear
5:53 AM 53.1 °F 46.9 °F 80% 30.10 in 10.0 mi North 6.9 mph - N/A   Clear
6:53 AM 55.9 °F 48.0 °F 75% 30.12 in 10.0 mi North 5.8 mph - N/A   Clear
7:53 AM 57.9 °F 46.9 °F 67% 30.12 in 10.0 mi NNE 12.7 mph 18.4 mph N/A   Clear
8:53 AM 61.0 °F 48.0 °F 62% 30.14 in 10.0 mi Variable 6.9 mph - N/A   Clear
9:53 AM 64.9 °F 48.0 °F 54% 30.12 in 10.0 mi ENE 9.2 mph - N/A   Clear
10:53 AM 66.9 °F 48.0 °F 51% 30.12 in 10.0 mi ENE 9.2 mph - N/A   Clear
11:53 AM 70.0 °F 48.9 °F 47% 30.13 in 10.0 mi NE 9.2 mph - N/A   Clear
12:53 PM 72.0 °F 48.9 °F 44% 30.14 in 10.0 mi NNE 10.4 mph - N/A   Partly Cloudy
1:53 PM 75.0 °F 48.9 °F 40% 30.14 in 10.0 mi Variable 4.6 mph - N/A   Partly Cloudy
2:53 PM 75.0 °F 46.0 °F 36% 30.13 in 10.0 mi Calm Calm - N/A   Mostly Cloudy
3:53 PM 77.0 °F 45.0 °F 32% 30.12 in 10.0 mi Variable 3.5 mph - N/A   Clear
4:53 PM 77.0 °F 46.0 °F 33% 30.11 in 10.0 mi Calm Calm - N/A   Partly Cloudy
5:53 PM 77.0 °F 44.1 °F 31% 30.09 in 10.0 mi ENE 6.9 mph - N/A   Clear
6:53 PM 77.0 °F 45.0 °F 32% 30.08 in 10.0 mi NE 4.6 mph - N/A   Clear
7:53 PM 72.0 °F 48.9 °F 44% 30.09 in 10.0 mi SE 10.4 mph - N/A   Clear
8:53 PM 66.0 °F 45.0 °F 47% 30.11 in 10.0 mi SSE 8.1 mph - N/A   Clear
9:53 PM 57.9 °F 45.0 °F 62% 30.12 in 10.0 mi East 3.5 mph - N/A   Partly Cloudy
10:53 PM 53.1 °F 44.1 °F 71% 30.15 in 10.0 mi Calm Calm - N/A   Clear
11:53 PM 50.0 °F 43.0 °F 77% 30.14 in 10.0 mi Calm Calm - N/A   Clear